Wind_Speed
36 36 35 37 37 38 40 40 40 38 37 36 34 33 32 32 33 34 34 34 34 34 34 35 35 35 35 36 36 36 36 36 37 38 39 40 40 40 41 41 41 41 42 42
35 35 35 35 36 37 39 40 40 39 38 37 37 35 33 33 34 34 35 35 36 36 36 36 36 36 36 36 37 37 37 38 38 38 39 40 41 42 42 43 43 44 44 44
32 34 35 35 34 34 35 36 38 38 37 38 38 37 36 36 35 35 36 36 37 38 38 37 38 37 37 37 38 38 38 39 39 39 40 41 42 42 43 44 44 44 45 46
30 32 35 34 33 33 34 34 35 36 37 37 38 38 39 38 38 37 37 37 38 39 40 39 39 39 39 39 39 40 40 40 41 41 42 43 43 43 43 44 45 47 47 48
28 29 31 32 32 33 35 34 34 34 35 36 37 38 38 38 38 38 38 38 38 39 39 40 40 40 40 40 41 41 42 41 42 42 43 44 45 45 44 45 46 47 47 48
26 27 29 29 29 30 32 32 32 32 32 33 35 36 36 37 37 37 37 38 38 38 39 40 40 41 41 41 41 42 43 43 43 43 44 46 46 46 47 47 47 48 48 49
24 26 27 28 29 29 29 29 30 30 31 31 33 33 34 35 36 36 37 36 37 38 38 39 40 41 41 42 41 42 43 43 44 44 45 45 46 46 47 48 48 48 48 49
22 25 24 24 26 27 27 27 28 28 29 30 30 31 32 33 34 35 36 36 36 37 38 38 39 40 41 42 42 42 42 43 44 45 45 46 46 46 47 47 48 48 48 48
21 23 22 22 23 25 26 26 25 26 27 28 29 29 30 31 32 33 35 36 36 37 38 38 39 40 41 41 41 41 42 43 43 44 44 44 45 45 46 46 46 46 46 46
19 20 21 21 22 23 25 25 24 24 25 27 27 27 27 28 30 31 31 33 35 37 38 39 39 40 40 40 41 41 41 42 42 42 42 43 43 44 45 45 45 45 45 46
18 19 20 21 21 21 21 22 23 23 23 24 26 27 27 27 28 29 31 32 33 35 36 38 39 39 40 40 40 41 41 41 41 41 42 42 42 42 43 43 44 44 45 45
16 16 18 20 21 21 21 21 22 23 23 24 24 25 26 27 27 28 29 31 32 33 34 35 36 37 38 39 39 39 39 40 40 40 41 41 41 42 42 43 44 44 44 44
16 16 17 18 19 20 20 20 21 22 23 24 24 24 25 26 27 28 29 30 31 31 32 33 34 35 36 37 38 38 38 38 38 39 40 40 41 41 42 42 43 43 43 44
16 17 17 18 18 18 19 20 20 20 22 23 23 24 25 26 27 28 28 28 29 30 31 31 32 33 34 35 36 36 37 37 38 38 39 39 40 40 40 40 41 42 43 43
15 16 17 17 18 18 18 19 19 19 20 21 22 23 24 25 27 28 28 29 30 30 30 31 31 32 34 35 35 36 36 37 37 37 38 38 39 40 40 40 41 42 42 43
15 16 16 17 17 18 18 18 19 19 20 20 21 22 23 24 25 26 28 29 29 30 30 31 31 32 33 34 35 35 35 36 36 37 38 38 39 40 40 41 42 42 43 43
16 17 17 17 18 18 18 19 19 20 20 21 21 22 22 23 24 26 27 28 28 28 29 30 31 32 32 33 34 34 35 35 36 37 38 38 39 40 40 41 41 42 43 43
16 16 17 17 18 19 19 20 20 20 21 22 22 22 23 23 24 25 26 27 28 28 29 30 30 30 31 32 33 33 34 35 36 37 37 38 39 40 41 42 42 42 43 42
16 16 17 17 18 19 20 21 21 22 22 22 23 23 24 24 25 26 27 27 28 29 29 30 30 30 30 31 31 31 32 33 35 36 37 38 39 40 40 41 41 40 40 40
17 17 18 18 18 19 20 20 21 22 23 23 24 25 25 26 26 27 27 28 28 29 30 30 31 31 31 31 32 32 32 33 34 35 36 37 37 38 38 38 38 38 38 38
18 18 19 19 20 20 21 22 23 23 23 24 25 25 26 27 28 28 28 28 29 30 31 31 31 32 32 32 32 33 33 33 34 34 35 35 35 35 35 35 35 35 36 36
18 19 19 20 21 21 22 23 23 23 24 24 25 25 26 27 28 28 29 29 30 30 31 32 32 32 32 33 33 33 33 34 34 34 34 34 34 34 34 34 34 34 34 35
18 19 19 20 21 22 22 23 23 24 24 25 25 26 26 26 27 27 28 29 29 30 30 31 31 32 32 33 34 34 34 34 34 33 33 33 33 33 33 33 33 33 33 33
18 19 20 20 21 21 22 23 24 25 25 26 26 27 27 27 27 27 28 28 28 29 29 30 30 31 32 32 33 33 33 32 32 31 31 31 31 31 31 32 32 31 31 30
19 19 20 21 22 22 23 24 24 25 26 26 27 27 27 27 28 28 27 28 28 28 28 29 29 30 30 30 30 30 29 29 29 29 29 29 28 29 29 29 28 27 26 25
18 20 21 22 22 23 24 24 25 26 26 27 27 27 27 28 27 27 27 27 27 27 28 28 28 28 28 27 27 26 26 26 26 26 25 25 25 25 25 24 24 23 23 22
19 20 20 21 22 23 24 25 26 26 26 27 27 27 26 26 26 26 26 27 27 27 27 27 26 26 25 25 24 24 23 23 23 23 23 23 23 22 22 22 22 22 21 21
Wind_Direction
238 237 236 235 235 235 235 236 238 239 240 238 239 241 240 239 236 235 236 236 237 238 239 239 239 238 240 241 240 239 240 242 243 244 245 247 249 251 253 255 258 260 262 262
238 237 235 235 234 235 236 236 237 238 237 236 236 238 238 236 235 234 234 235 236 236 238 239 240 240 241 242 241 241 242 243 244 246 247 249 250 252 254 256 259 261 262 263
238 235 233 232 231 233 235 236 236 236 235 235 237 236 237 237 236 236 236 236 236 237 238 239 240 241 242 242 244 245 245 245 246 248 250 251 252 253 255 257 259 261 263 265
236 234 236 234 233 234 236 237 237 237 235 235 236 238 239 239 238 237 237 238 237 237 238 241 242 242 243 243 243 244 246 248 249 250 251 253 254 256 257 259 262 263 265 268
235 233 234 234 234 235 237 237 238 239 238 238 237 237 237 238 239 240 239 239 238 239 239 240 242 242 243 245 245 246 247 250 250 251 252 253 255 257 260 262 265 266 268 270
237 238 237 235 235 237 238 238 239 240 240 239 239 239 238 240 241 242 242 242 241 241 241 241 242 242 244 246 247 248 250 251 252 254 254 256 257 259 262 264 266 267 269 270
236 238 239 238 237 237 238 237 239 241 242 242 241 241 242 244 244 244 244 244 243 243 242 243 244 245 246 248 249 250 252 253 255 256 257 258 259 261 263 265 266 268 268 270
233 235 237 238 238 237 238 238 241 243 243 243 242 243 244 244 245 245 245 245 244 243 244 244 246 247 248 249 250 252 253 254 256 258 259 260 261 262 264 265 266 268 268 269
235 236 237 240 242 240 240 241 243 245 244 245 243 244 245 245 245 246 246 246 246 246 246 247 248 249 250 252 252 253 254 256 257 259 260 261 262 263 265 266 267 268 269 270
233 233 235 237 239 240 239 239 241 243 245 243 243 243 243 244 245 245 246 247 247 248 249 250 250 251 252 253 254 255 256 257 258 258 259 260 262 264 265 266 268 269 270 272
239 239 236 237 239 239 239 239 241 244 244 243 241 242 244 245 245 245 245 247 249 250 251 251 252 254 255 255 256 257 258 258 258 257 258 260 261 262 264 266 268 269 271 272
244 245 244 242 241 241 242 242 244 245 244 244 244 243 243 245 246 246 246 246 248 250 252 252 252 254 255 256 257 258 258 258 259 259 258 259 260 261 263 265 267 269 270 271
249 249 249 247 244 242 242 243 245 245 244 244 245 246 246 246 246 247 247 247 249 251 253 252 252 253 253 254 256 258 258 258 259 259 259 259 261 262 264 265 268 269 270 272
249 249 249 248 245 244 243 242 243 244 244 245 246 246 247 247 248 247 247 248 250 252 253 252 252 253 253 255 256 257 258 259 259 260 260 261 263 264 265 266 268 270 272 274
249 250 249 246 245 245 244 243 244 245 245 245 247 248 250 250 249 249 250 251 254 255 255 254 255 255 255 256 257 258 259 259 260 261 262 263 264 265 266 268 270 271 273 274
246 248 248 246 245 246 246 244 244 247 249 250 251 251 252 253 252 251 252 254 256 257 256 257 257 258 259 259 259 260 261 261 261 262 263 264 265 266 268 269 271 272 273 275
247 248 247 246 246 248 248 247 246 248 251 254 255 255 255 255 256 256 256 258 259 259 259 260 260 261 261 261 261 261 262 262 263 263 264 266 267 268 270 271 272 272 273 275
251 252 250 249 248 248 249 250 250 252 254 256 257 259 259 259 259 260 260 261 261 261 262 263 263 264 264 265 265 265 266 266 266 266 268 269 270 270 271 272 273 273 274 274
251 251 252 253 252 252 251 250 252 254 256 258 259 260 261 263 264 264 265 264 263 262 262 264 265 267 268 268 268 268 268 268 268 269 270 271 272 273 273 273 273 273 273 274
253 254 255 256 256 255 254 254 255 256 258 259 261 262 262 265 267 268 267 267 266 265 265 266 268 269 269 270 269 269 271 271 271 272 273 273 273 273 273 273 273 273 273 274
257 258 258 258 259 260 261 260 260 261 262 263 264 265 266 267 268 269 269 269 268 267 267 267 268 269 270 270 270 271 272 272 273 274 274 274 273 273 273 273 273 273 274 275
260 260 261 262 263 263 264 263 263 264 265 266 267 268 268 268 269 270 270 271 270 270 269 269 270 270 270 270 271 272 273 273 274 274 274 274 273 273 273 273 274 274 275 276
262 263 263 264 265 265 265 265 265 266 268 269 270 271 271 271 272 272 273 273 273 272 271 270 270 270 270 271 272 272 273 274 274 274 274 273 273 273 273 274 275 277 277 277
267 266 266 266 266 267 268 269 270 271 271 272 272 273 274 275 275 276 275 275 274 273 272 271 270 270 271 272 272 273 273 274 273 273 273 273 274 274 273 274 276 277 277 276
270 270 269 269 269 270 271 273 273 273 273 274 274 275 275 276 276 276 276 274 273 273 273 273 272 271 272 272 272 272 271 271 271 271 272 273 274 274 274 274 275 275 276 275
274 273 273 272 271 271 272 274 275 276 275 274 274 275 275 275 276 276 275 275 273 273 274 274 273 273 273 273 272 271 270 270 270 271 272 273 274 275 274 273 274 274 275 275
278 277 276 275 275 275 275 276 277 277 277 276 275 275 274 274 274 274 274 274 273 273 273 272 272 272 272 270 270 270 270 270 270 271 272 273 273 273 273 273 273 274 274 274
Height
5525 5529 5533 5538 5543 5547 5550 5555 5560 5566 5570 5576 5579 5583 5586 5590 5593 5597 5601 5605 5609 5612 5616 5619 5622 5625 5628 5631 5634 5637 5640 5642 5644 5647 5649 5652 5654 5656 5658 5660 5661 5662 5663 5664
5516 5520 5523 5528 5533 5537 5541 5546 5550 5554 5560 5565 5569 5572 5576 5580 5584 5588 5592 5595 5599 5603 5606 5609 5613 5616 5619 5622 5624 5627 5630 5633 5635 5637 5639 5642 5644 5646 5648 5649 5651 5651 5652 5652
5507 5511 5514 5520 5525 5528 5532 5536 5541 5545 5551 5555 5558 5562 5566 5570 5574 5578 5582 5586 5589 5593 5596 5600 5603 5606 5609 5613 5615 5617 5620 5623 5626 5628 5630 5632 5634 5635 5637 5638 5639 5640 5640 5640
5499 5503 5507 5515 5517 5520 5523 5527 5531 5535 5540 5544 5548 5552 5556 5560 5564 5568 5572 5576 5579 5583 5586 5589 5593 5596 5599 5602 5605 5608 5610 5613 5615 5617 5619 5621 5622 5624 5625 5626 5627 5628 5628 5628
5491 5494 5498 5505 5508 5511 5515 5519 5523 5527 5531 5534 5538 5541 5546 5550 5554 5558 5562 5566 5569 5572 5576 5579 5582 5585 5588 5592 5595 5597 5600 5602 5604 5606 5608 5609 5611 5612 5613 5614 5614 5615 5615 5614
5485 5488 5492 5498 5501 5504 5508 5512 5516 5519 5522 5525 5529 5533 5538 5541 5544 5547 5551 5555 5559 5562 5565 5568 5571 5574 5577 5580 5583 5586 5588 5591 5592 5594 5595 5597 5598 5600 5600 5601 5601 5601 5601 5600
5479 5482 5486 5491 5494 5497 5502 5506 5508 5511 5514 5517 5521 5525 5528 5531 5534 5537 5540 5544 5548 5551 5555 5558 5561 5564 5566 5569 5571 5574 5576 5578 5580 5582 5583 5584 5585 5586 5587 5587 5588 5587 5587 5586
5474 5477 5483 5484 5487 5491 5494 5497 5500 5503 5506 5509 5513 5515 5518 5521 5525 5528 5531 5534 5537 5540 5544 5547 5550 5552 5555 5557 5560 5562 5564 5566 5568 5569 5570 5571 5572 5573 5573 5574 5574 5573 5573 5573
5469 5474 5476 5478 5481 5483 5487 5490 5493 5496 5498 5501 5504 5507 5510 5513 5515 5518 5521 5524 5527 5530 5533 5536 5538 5541 5544 5546 5548 5550 5552 5554 5555 5557 5558 5559 5559 5560 5560 5560 5560 5560 5560 5559
5465 5467 5470 5472 5475 5477 5480 5483 5486 5488 5491 5494 5497 5499 5502 5504 5507 5509 5512 5514 5517 5520 5522 5525 5527 5530 5532 5534 5536 5538 5540 5541 5543 5544 5545 5546 5547 5547 5547 5547 5547 5547 5547 5546
5460 5463 5465 5467 5469 5471 5474 5476 5479 5481 5484 5486 5489 5491 5493 5496 5498 5500 5503 5505 5508 5510 5512 5514 5517 5519 5521 5523 5524 5526 5528 5529 5531 5532 5533 5534 5534 5535 5535 5535 5535 5535 5534 5533
5457 5458 5460 5461 5463 5465 5468 5470 5472 5475 5477 5479 5481 5483 5486 5488 5490 5492 5494 5496 5499 5501 5503 5504 5506 5508 5510 5511 5513 5515 5516 5518 5519 5520 5521 5522 5523 5523 5523 5523 5523 5522 5521 5521
5451 5453 5454 5456 5458 5460 5462 5464 5466 5468 5470 5472 5474 5476 5478 5480 5482 5484 5485 5487 5489 5491 5493 5494 5496 5497 5499 5500 5502 5503 5504 5506 5507 5508 5509 5510 5511 5511 5512 5512 5511 5510 5509 5508
5446 5448 5449 5451 5453 5454 5456 5459 5460 5462 5464 5465 5467 5469 5470 5472 5474 5475 5477 5479 5480 5482 5483 5484 5485 5487 5488 5489 5491 5492 5493 5494 5495 5496 5497 5498 5499 5499 5500 5499 5499 5498 5497 5496
5442 5443 5444 5446 5447 5449 5451 5453 5455 5456 5458 5459 5461 5462 5463 5465 5466 5468 5469 5470 5471 5472 5473 5474 5476 5477 5478 5479 5480 5481 5482 5483 5484 5485 5486 5487 5487 5487 5487 5487 5487 5486 5485 5483
5437 5438 5439 5441 5442 5444 5445 5447 5449 5450 5452 5453 5454 5455 5456 5457 5458 5459 5460 5461 5462 5463 5464 5465 5466 5466 5467 5468 5469 5470 5471 5472 5472 5473 5474 5475 5475 5475 5475 5475 5474 5473 5472 5471
5433 5434 5435 5436 5437 5439 5440 5441 5443 5444 5445 5447 5447 5448 5449 5450 5451 5452 5452 5453 5454 5454 5455 5456 5456 5457 5458 5458 5459 5459 5460 5460 5461 5462 5462 5462 5463 5463 5462 5462 5461 5460 5459 5457
5428 5429 5430 5431 5432 5433 5434 5436 5437 5438 5439 5440 5440 5441 5442 5442 5443 5444 5444 5445 5445 5446 5446 5446 5447 5447 5448 5448 5448 5449 5449 5449 5449 5450 5450 5450 5450 5450 5449 5449 5448 5447 5446 5445
5422 5423 5424 5425 5426 5427 5428 5429 5430 5431 5432 5432 5433 5434 5434 5435 5435 5435 5436 5436 5436 5437 5437 5437 5438 5438 5438 5438 5438 5438 5438 5438 5438 5438 5438 5438 5438 5437 5436 5435 5435 5434 5433 5432
5417 5418 5419 5419 5420 5421 5422 5422 5423 5424 5424 5425 5426 5426 5426 5426 5427 5427 5427 5427 5427 5427 5427 5428 5428 5428 5428 5428 5428 5428 5428 5427 5427 5427 5426 5426 5425 5425 5424 5423 5422 5421 5420 5419
5412 5412 5413 5413 5414 5414 5415 5416 5416 5417 5417 5417 5418 5418 5418 5418 5418 5418 5418 5418 5418 5418 5418 5418 5418 5418 5418 5418 5417 5417 5417 5417 5416 5416 5415 5414 5414 5413 5412 5411 5410 5410 5409 5408
5406 5406 5407 5407 5407 5408 5408 5408 5409 5409 5409 5409 5409 5409 5409 5409 5409 5409 5409 5409 5408 5408 5408 5408 5407 5407 5407 5407 5407 5407 5406 5406 5405 5405 5404 5404 5403 5402 5402 5401 5400 5399 5398 5397
5399 5400 5400 5400 5400 5400 5400 5401 5401 5401 5401 5401 5401 5401 5401 5400 5400 5400 5400 5399 5398 5398 5398 5397 5397 5397 5397 5397 5396 5396 5396 5395 5394 5394 5393 5393 5392 5392 5391 5390 5389 5388 5387 5386
5393 5393 5393 5393 5393 5393 5393 5393 5393 5393 5392 5392 5392 5392 5391 5391 5391 5390 5390 5389 5389 5388 5388 5387 5387 5387 5386 5386 5385 5385 5385 5384 5384 5383 5383 5382 5382 5381 5381 5380 5379 5378 5377 5376
5387 5386 5386 5386 5386 5386 5386 5385 5385 5384 5384 5383 5383 5382 5382 5381 5381 5381 5380 5380 5379 5378 5378 5377 5377 5377 5376 5375 5375 5374 5374 5374 5373 5373 5373 5373 5372 5371 5371 5370 5369 5368 5367 5366
5380 5380 5379 5379 5379 5378 5378 5377 5377 5376 5375 5375 5374 5373 5373 5372 5371 5371 5370 5370 5369 5369 5369 5368 5368 5367 5366 5366 5365 5365 5365 5364 5364 5364 5364 5363 5363 5362 5362 5361 5361 5360 5359 5359
5374 5373 5372 5372 5371 5370 5369 5369 5368 5367 5366 5365 5365 5364 5363 5363 5362 5362 5361 5361 5360 5360 5359 5359 5358 5358 5357 5357 5357 5357 5356 5356 5356 5356 5356 5355 5355 5354 5354 5353 5353 5353 5352 5351